www.pogodaiklimat.ru
Время
(UTC), дата
03 13.10
06 13.10
09 13.10
12 13.10
15 13.10
18 13.10
21 13.10
00 14.10
03 14.10
06 14.10
09 14.10
12 14.10
15 14.10
18 14.10
21 14.10
00 15.10
03 15.10
06 15.10
09 15.10
12 15.10
15 15.10
18 15.10
21 15.10
00 16.10
03 16.10
06 16.10
09 16.10
12 16.10
15 16.10
18 16.10
21 16.10
00 17.10
03 17.10
06 17.10
09 17.10
12 17.10
15 17.10
18 17.10
21 17.10
00 18.10
03 18.10
06 18.10
09 18.10
12 18.10
15 18.10
18 18.10
21 18.10
00 19.10
03 19.10
06 19.10
09 19.10
12 19.10
15 19.10
18 19.10
21 19.10
Ветер
(напр.,м/с)
Видим. Явления Облачность Т
(С)
Тd
(С)
f
(%)
Тe
(С)
Тes
(С)
Комфортность P
(гПа)
Po
(гПа)
Тmin
(С)
Tmax
(С)
R
(мм)
R24
(мм)
S
(см)
З 6 4000 м слаб. снег {метель} 10/0
[As op]
-5.4 -6.8 90 -13 -13 по сезону 1018.0 1017.1
З 3 4000 м слаб. снег {метель} 10/10 1000 м
[Sc]
-4.5 -6.1 89 -10 -10 по сезону 1017.1 1016.2
З 4 4000 м слаб. снег {метель} 10/10 600 м
[Sc]
-4.2 -6.1 87 -11 -11 по сезону 1016.3 1015.4
ЮЗ 6 20 км позёмок {снег} 10/10 600 м
[Sc]
-5.8 -7.7 86 -14 -14 по сезону 1015.7 1014.8 -3.8 0.4
ЮЗ 4
{10}
20 км {метель} 8/0
[Ac trans Ci fib]
-6.3 -8.3 86 -13 -13 по сезону 1014.0 1013.1
ЮЗ 7
{10}
20 км позёмок 6/0
[Ac lent Ci fib]
-7.0 -9.1 85 -16 -16 по сезону 1012.0 1011.1
ЮЗ 6
{10}
20 км позёмок 8/0
[Ac trans Ci fib]
-6.1 -8.0 86 -14 -14 по сезону 1010.5 1009.6
ЮЗ 3 20 км {метель} 10/0
[Ac trans Cs]
-5.1 -8.0 80 -11 -11 по сезону 1008.7 1007.8 -7.1 2
З 3 20 км 10/0
[Ac trans Ci fib]
-3.0 -6.8 75 -8 -8 тепло 1006.8 1005.9
З 4 10 км слаб. снег 10/0
[Ac und]
-3.8 -7.5 75 -10 -10 тепло 1006.3 1005.4
З 3 20 км {снег} 10/0
[Ac und]
-5.3 -8.2 80 -11 -11 по сезону 1006.2 1005.3
З 3 20 км {снег} 10/0
[Ac und]
-4.8 -7.6 81 -10 -10 тепло 1005.6 1004.7 -2.9 0.0
СЗ 5 4000 м слаб. снег 10/0
[Ac und]
-5.0 -7.9 80 -12 -12 по сезону 1005.2 1004.3
З 5 4000 м слаб. снег 10/0
[Ac und]
-5.5 -8.5 79 -13 -13 по сезону 1005.2 1004.3
СЗ 8
{10}
4000 м слаб. снег 10/0
[Ac und]
-5.3 -7.5 84 -14 -14 по сезону 1004.8 1003.9
ЮЗ 8-10
{12}
20 км позёмок {снег} 10/0
[Ac und]
-5.6 -8.6 79 -14 -14 по сезону 1004.7 1003.8 -5.8 0.0 2
ЮЗ 8-10
{11}
20 км позёмок {снег} 9/4 1000 м
[Sc Ac lent]
-4.8 -7.2 83 -14 -14 по сезону 1004.4 1003.5
З 10-13
{14}
10 км слаб. снег {метель} 10/0
[Ac lent]
-3.2 -6.4 79 -12 -12 по сезону 1004.6 1003.7
З 7
{13}
10 км слаб. снег {метель} 10/8 1000 м
[Sc Ac und]
-3.7 -5.5 87 -12 -12 по сезону 1005.2 1004.3
ЮЗ 5
{11}
10 км слаб. снег {метель} 10/8 1000 м
[Sc Ac und]
-3.6 -5.1 89 -11 -11 тепло 1006.0 1005.1 -3.2 0.0
ЮЗ 5 4000 м слаб. снег {метель} 10/0
[As op]
-3.8 -5.0 91 -11 -11 тепло 1005.5 1004.6
ЮЗ 5 4000 м слаб. снег {метель} 10/4 1000 м
[Sc Ac und]
-3.8 -5.0 91 -11 -11 тепло 1005.5 1004.6
штиль 0 2000 м слаб. ливневой снег 10/10 300 м
[Cb cap]
-3.4 -3.9 96 -5 -5 тепло 1006.1 1005.2
СВ 2 2000 м слаб. ливневой снег 10/10 300 м
[Cb cap]
-4.4 -5.0 96 -9 -9 тепло 1006.1 1005.2 -4.4 2 3
штиль 0 2000 м снег {ливн. осадки} 10/0
[As op]
-3.8 -4.3 96 -5 -5 тепло 1005.9 1005.0
З 4 4000 м слаб. ливневой снег 10/10 300 м
[Cb cap]
-3.2 -4.9 88 -9 -9 тепло 1005.6 1004.7
ЮЗ 6
{10}
10 км слаб. снег 10/10 1000 м
[Sc]
-2.1 -5.7 76 -9 -9 тепло 1004.1 1003.2
Ю 5 2000 м слаб. ливневой снег 10/10 300 м
[Cb cap]
-2.6 -3.3 95 -9 -9 тепло 1001.6 1000.7 -1.7 1
Ю 6
{10}
2000 м снег {ливн. осадки} 10/0 200 м
[As op]
-2.3 -2.6 98 -10 -10 тепло 998.1 997.2
ЮЗ 6
{10}
2000 м снег {ливн. осадки} 10/0 200 м
[As op]
-2.3 -2.6 98 -10 -10 тепло 996.4 995.5
ЮЗ 3 4000 м слаб. снег {метель} 10/10 600 м
[Sc]
-2.4 -3.0 96 -8 -8 тепло 995.9 995.0
СЗ 8
{10}
20 км позёмок {снег} 10/8 1000 м
[Sc Ac trans]
-5.2 -6.2 93 -14 -14 по сезону 998.2 997.3 -5.8 3 10
СЗ 9-11
{13}
10 км слаб. снег {метель} 10/5 300 м
[Sc Ac und]
-3.2 -4.9 88 -12 -12 по сезону 1001.1 1000.2
СЗ 9-11
{13}
10 км слаб. снег {метель} 10/5 300 м
[Sc Ac und]
-3.6 -5.1 89 -13 -13 по сезону 1004.1 1003.2
СЗ 7
{11}
4000 м слаб. снег {метель} 10/0
[Ac und]
-5.4 -8.8 77 -14 -14 по сезону 1007.1 1006.2
СЗ 6 20 км позёмок {снег} 10/0
[Ac und]
-6.6 -9.4 80 -15 -15 по сезону 1008.9 1008.0 -3.2 0.3
СЗ 6 20 км позёмок 10/0
[Ac und]
-8.0 -11.6 75 -16 -16 по сезону 1010.2 1009.3
Ю 3 20 км {метель} 10/0
[Ac trans Ci fib]
-13.3 -16.3 78 -20 -20 прохладно 1011.5 1010.6
З 5 20 км 4/0
[Ac trans Ci fib]
-11.3 -14.9 75 -19 -19 прохладно 1012.2 1011.3
ЮЗ 3 20 км 4/0
[Ac trans Ci fib]
-13.0 -16.5 75 -19 -19 прохладно 1013.2 1012.3 -14.0 7
З 6 20 км позёмок 3/0
[Ac lent]
-11.2 -15.9 68 -20 -20 холодно 1014.0 1013.1
З 7
{11}
20 км позёмок 9/9 1000 м
[Sc]
-10.9 -14.5 75 -20 -20 холодно 1014.6 1013.7
З 5 10 км снежные кристаллы {метель} 10/9 1000 м
[Sc Ci fib]
-10.8 -14.1 77 -19 -19 прохладно 1015.4 1014.5
ЮЗ 4 10 км снежные кристаллы {метель} 10/10 1000 м
[Sc]
-10.1 -13.4 77 -17 -17 по сезону 1016.6 1015.7 -10.1 0.0
ЮЗ 4 20 км {снег} 10/10 1000 м
[Sc]
-13.3 -16.8 75 -21 -21 холодно 1016.7 1015.8
ЮЗ 6 20 км позёмок {снег} 10/0
[Ac lent Ci fib]
-13.8 -16.7 79 -23 -23 очень
холодно
1017.2 1016.3
ЮЗ 5 4000 м слаб. снег {метель} 10/10 1000 м
[Sc]
-12.1 -14.6 82 -20 -20 холодно 1016.8 1015.9
Ю 2 10 км слаб. снег {метель} 10/10 1000 м
[Sc]
-11.1 -13.3 84 -16 -16 прохладно 1017.8 1016.9 -14.1 0.0 6
ЮЗ 2 20 км {снег} 9/0
[Ac trans]
-11.0 -13.5 82 -16 -15 прохладно 1017.3 1016.4
штиль 0 10 км слаб. снег 10/10 1000 м
[Sc]
-11.3 -13.5 84 -11 -11 по сезону 1017.0 1016.1
штиль 0 10 км слаб. снег 10/10 600 м
[Sc]
-10.9 -12.8 86 -11 -11 по сезону 1015.8 1014.9
штиль 0 10 км слаб. снег 10/10 1000 м
[Sc]
-9.5 -11.1 88 -10 -10 по сезону 1014.9 1014.0 -8.0 0.0
В 4 10 км снежные кристаллы 10/10 600 м
[Sc]
-8.7 -10.7 85 -16 -16 по сезону 1014.0 1013.1
В 3 10 км снежные кристаллы 10/10 600 м
[Sc]
-7.4 -10.0 82 -13 -13 по сезону 1014.1 1013.2
штиль 0 4000 м слаб. снег 10/10 1000 м
[Sc]
-7.6 -9.8 84 -8 -8 по сезону 1014.6 1013.7
Местоположение метеостанции Тикси (Якутия, Россия): широта 71.58 долгота 128.90 высота над уровнем моря 7 м.
В архиве по умолчанию представлена погода в Тикси за последнюю неделю. Архивные данные за месяц целиком и за предыдущие месяцы, начиная с января 2011 года, Вы можете получить, выбрав интересующий диапазон дат из раскрывающегося списка и нажав кнопку "Найти!".
*Определитесь, кто Вы:
Внимание! Время в таблицах - всемирное. Для получения местного времени необходимо прибавить поправку, которая равна 9 ч.
Смотрите также архив погоды в соседних городах и на ближайших метеорологических станциях:
Партнеры нашего сайта:      
Пояснения к столбцам:
  • Ветер - указаны скорость ветра в м/с - средняя за 10 мин, порывы в срок и между сроками (в фигурных скобках) и направление, откуда дует ветер: С - северный,
  • СВ - северо-восточный, В - восточный, ЮВ - юго-восточный, Ю - южный, ЮЗ - юго-западный, З - западный, СЗ - северо-западный.
  • Видимость - горизонтальная дальность видимости в метрах или километрах. При видимости от 1 до 10 км при отсутствии осадков обычно наблюдается дымка, при ухудшении видимости до 1 км и менее - туман. В сухую погоду видимость может ухудшаться дымом, пылью или мглою.
  • Явления - указаны атмосферные явления, наблюдавшиеся в срок или в последний час перед сроком; фигурными скобками обозначены явления, наблюдавшиеся между сроками (за 1-3 часа до срока); квадратными скобками обозначены град или гололедные отложения с указанием их диаметра в мм.
  • Облачность - указаны через наклонную черту общая и нижняя облачность в баллах и высота нижней границы облаков в метрах; квадратными скобками обозначены формы облаков: Ci - перистые, Cs - перисто-слоистые, Cc - перисто-кучевые, Ac - высококучевые, As - высокослоистые, Sc - слоисто-кучевые, Ns - слоисто-дождевые, Cu - кучевые, Cb - кучево-дождевые. Подробнее классификацию облаков см. в Атласе облаков (PDF).
  • T - Температура воздуха - температура, измеренная на высоте 2 м над землей.
  • Td - Температура точки росы - температура, при понижении до которой содержащийся в воздухе водяной пар достигнет насыщения.
  • f - Относительная влажность воздуха - влажноcть воздуха, измеренная на высоте 2 м над землей.
  • Te - Эффективная температура - температура, которую ощущает одетый по сезону человек в тени. Характеристика душности погоды. При расчете учитывается влияние влажности воздуха и скорости ветра на теплоощущения человека.
  • Tes - Эффективная температура на солнце - температура, которую ощущает человек, с поправкой на солнечный нагрев. Характеристика знойности погоды. Зависит от высоты солнца над горизонтом, облачности и скорости ветра. Ночью, в пасмурную погоду, а также при ветре 12 м/с и более поправка равна нулю.
  • P - Атмосферное давление - приведенное к уровню моря атмосферное давление.
  • Po - Атмосферное давление - измеренное на уровне метеостанции атмосферное давление.
  • Tmin - Минимальная температура - минимум температуры воздуха на высоте 2 м над землей.
  • Tmax - Максимальная температура - максимум температуры воздуха на высоте 2 м над землей.
  • R - Количество осадков - Количество выпавших осадков за период времени, мм. При наведении курсора мыши на число - период времени, за который выпало указанное количество осадков.
  • R24 - Количество осадков - Количество выпавших осадков за 24 часа, мм.
  • S - Снежный покров - Высота снежного покрова, см. При наведении курсора мыши на число - состояние снежного покрова и степень покрытия местности в баллах.